User: anonymous   Login
Location: Vancouver
(49.2500°N, 123.1330°W)
Time: 17:24:39
(UTC-08:00)
Language:

Cosmos 2333 Rocket - Orbit

View from above orbital plane
View from above orbital plane
View from above satellite
View from above satellite

Ground track
Ground track

The orbit data is extracted from the following two-line orbital elements,

1 24298U 96051B   14330.89001682 -.00000171  00000-0 -66424-4 0  6085
2 24298 070.8585 229.3132 0014125 136.8200 293.0542 14.12454201940041
Epoch (UTC): 26 November 2014 21:21:37
Eccentricity: 0.0014125
inclination: 70.8585°
perigee height: 841 km
apogee height: 861 km
right ascension of ascending node: 229.3132°
argument of perigee: 136.8200°
revolutions per day: 14.12454201
mean anomaly at epoch: 293.0542°
orbit number at epoch: 94004

The dashed part of the orbit path shows where the satellite is in the earth's shadow,  

DLR